Simultaneous Nadir Overpasses (SNOs) Predictions

Prediction of SNOs between GOES-14 and NOAA-20 Satellite Orbit:

Table of predicted SNOs for the next 14.0 days since TLE Epoch: 7/1/2023
Index Date Time (GOES-14) GOES-14 Lat,Lon NOAA-20 Lat,Lon Distance(km) Time Diff (sec)
1 07/01/2023 20:31:07 0.12,-108.58 0.69,-106.09 284.67 80
2 07/03/2023 08:50:16 -0.16,-108.67 0.42,-111.38 308.10 80
3 07/04/2023 08:34:12 -0.14,-108.66 -0.57,-106.84 207.57 80
4 07/05/2023 20:53:29 0.18,-108.55 -0.61,-112.16 409.98 80
5 07/06/2023 20:37:25 0.16,-108.55 0.39,-107.62 106.45 80
6 07/08/2023 08:56:33 -0.20,-108.65 0.78,-112.90 484.81 80
7 07/09/2023 08:40:28 -0.18,-108.65 -0.22,-108.37 31.32 80
8 07/11/2023 20:41:01 0.20,-108.54 0.05,-109.15 70.22 80
9 07/12/2023 20:24:57 0.18,-108.54 1.06,-104.62 446.20 80
10 07/14/2023 08:44:06 -0.22,-108.64 0.06,-109.91 144.81 80
